[[{"header":{"parameterUnit":"m.s-1","parameterCategory":1,"la1":30.2992,"la2":30.254,"lo1":-89.0895,"lo2":-89.0443,"dy":0.0025,"dx":0.0025,"nx":19,"ny":19,"refTime":"2026-04-19T09:00:00:Z","depth":0,"parameterNumber":2,"parameterNumberName":"U-component_of_WINDS"},"data":[0,0,0,-1.5673,-1.5679,-1.598,-1.5982,-1.6354,-1.6358,0,0,0,0,0,0,0,0,0,0,0,-1.5572,-1.5574,-1.5672,-1.5679,-1.598,-1.5982,-1.6354,-1.6358,0,0,0,0,0,0,0,0,0,0,0,-1.5571,-1.5573,-1.5576,-1.568,-1.598,-1.5982,-1.6353,-1.6131,0,0,0,0,0,0,0,0,0,0,-1.5841,-1.5736,-1.5573,-1.5576,-1.5682,-1.598,-1.5982,-1.6121,-1.6145,-1.6211,0,-1.6263,0,-1.6316,-1.6381,-1.6383,0,0,0,-1.5689,-1.5715,-1.5806,-1.5576,-1.5685,-1.5979,-1.5847,-1.6135,-1.6162,-1.6243,-1.6269,-1.6283,-1.6322,-1.6384,-1.6385,-1.6725,-1.6726,0,0,-1.5672,-1.5621,-1.5787,-1.5824,-1.5772,-1.5837,-1.5856,-1.6151,-1.6177,-1.627,-1.6292,-1.6328,-1.6386,-1.6389,-1.6724,-1.6726,0,0,0,-1.5618,-1.5609,-1.5693,-1.5808,-1.5863,-1.5846,-1.5868,-1.6164,-1.6196,-1.6296,-1.6333,-1.6388,-1.6392,-1.6723,-1.6725,-1.6729,0,0,0,-1.5608,-1.5577,-1.5685,-1.5657,-1.5857,-1.6017,-1.5874,-1.6176,-1.621,-1.6331,-1.6388,-1.6396,-1.6722,-1.6724,-1.6727,-1.6741,0,0,0,-1.5556,-1.5571,-1.561,-1.5653,-1.5781,-1.6013,-1.6062,-1.6184,-1.6232,-1.6383,-1.6397,-1.6721,-1.6724,-1.6724,-1.6737,-1.6816,0,0,0,-1.5487,-1.5612,-1.5609,-1.5764,-1.5778,-1.6012,-1.6061,-1.6239,-1.6368,-1.639,-1.6722,-1.6725,-1.6724,-1.6735,-1.6813,-1.6873,-1.6893,0,0,-1.5616,-1.5625,-1.572,-1.5727,-1.5948,-1.597,-1.6194,-1.6364,-1.6427,-1.6623,-1.6632,-1.6728,-1.6737,-1.6815,-1.7019,-1.7034,0,0,0,-1.5744,-1.5812,-1.5881,-1.6,-1.613,-1.6244,-1.6384,-1.6447,-1.6616,-1.6516,-1.6778,-1.6786,-1.6834,-1.6865,-1.6878,-1.6924,-1.6736,-1.6736,-1.6736,-1.5854,-1.5926,-1.6088,-1.6196,-1.6311,-1.6454,-1.6555,-1.6665,-1.6706,-1.6767,-1.6826,-1.694,-1.6975,-1.6985,-1.7031,-1.6862,-1.6862,-1.6863,-1.6863,-1.6052,-1.6159,-1.6208,-1.6383,-1.6459,-1.6608,-1.6751,-1.6775,-1.6927,-1.6902,-1.6948,-1.6914,-1.6999,-1.7044,-1.6864,-1.6864,-1.6863,-1.6863,-1.6863,-1.6133,-1.6197,-1.6269,-1.6448,-1.6579,-1.6686,-1.6829,-1.6894,-1.6957,-1.7002,-1.7073,-1.7073,-1.7082,-1.7031,-1.7031,-1.7032,-1.7032,-1.7032,-1.7033,-1.6189,-1.627,-1.638,-1.6528,-1.6613,-1.6734,-1.6878,-1.6966,-1.7079,-1.7116,-1.7117,-1.7152,-1.6993,-1.6952,-1.7039,-1.7038,-1.7037,-1.7036,-1.7036,-1.6364,-1.6334,-1.6505,-1.659,-1.677,-1.6896,-1.6977,-1.7148,-1.723,-1.7299,-1.7325,-1.7196,-1.7212,-1.7202,-1.7169,-1.7307,-1.7307,-1.7307,-1.7307,-1.6433,-1.6446,-1.6635,-1.6767,-1.6904,-1.6994,-1.7188,-1.7302,-1.7417,-1.7473,-1.7462,-1.7423,-1.741,-1.7434,-1.7419,-1.7389,-1.7581,-1.7581,-1.7582,-1.6545,-1.6575,-1.6726,-1.6833,-1.6978,-1.7103,-1.7288,-1.7441,-1.7565,-1.7594,-1.7518,-1.7507,-1.7444,-1.742,-1.7448,-1.7424,-1.7371,0,0]},{"header":{"parameterUnit":"m.s-1","parameterCategory":1,"la1":30.2992,"la2":30.254,"lo1":-89.0895,"lo2":-89.0443,"dy":0.0025,"dx":0.0025,"nx":19,"ny":19,"refTime":"2026-04-19T09:00:00:Z","depth":0,"parameterNumber":3,"parameterNumberName":"V-component_of_WINDS"},"data":[0,0,0,-9.5864,-9.5871,-9.6161,-9.6162,-9.653,-9.6533,0,0,0,0,0,0,0,0,0,0,0,-9.5782,-9.5785,-9.5864,-9.5871,-9.6161,-9.6162,-9.6529,-9.6533,0,0,0,0,0,0,0,0,0,0,0,-9.5781,-9.5784,-9.5787,-9.5872,-9.6161,-9.6162,-9.6528,-9.6309,0,0,0,0,0,0,0,0,0,0,-9.6027,-9.5956,-9.5783,-9.5787,-9.5874,-9.6161,-9.6162,-9.6298,-9.6323,-9.6398,0,-9.6472,0,-9.6509,-9.6558,-9.6559,0,0,0,-9.5867,-9.5936,-9.6012,-9.5788,-9.5877,-9.616,-9.6029,-9.6312,-9.6339,-9.6431,-9.6477,-9.6491,-9.6515,-9.656,-9.6562,-9.7029,-9.7032,0,0,-9.585,-9.5834,-9.5993,-9.603,-9.5992,-9.602,-9.6038,-9.6329,-9.6376,-9.6479,-9.6499,-9.6521,-9.6563,-9.6565,-9.7027,-9.703,0,0,0,-9.5808,-9.5823,-9.5892,-9.6015,-9.6068,-9.6028,-9.6049,-9.6363,-9.6387,-9.6503,-9.6525,-9.6565,-9.6569,-9.7025,-9.7028,-9.7133,0,0,0,-9.5798,-9.5798,-9.5885,-9.5878,-9.6063,-9.622,-9.6077,-9.6367,-9.64,-9.6524,-9.6565,-9.6573,-9.7022,-9.7026,-9.7125,-9.7184,0,0,0,-9.5761,-9.5794,-9.5838,-9.5877,-9.6002,-9.6216,-9.6257,-9.6374,-9.6414,-9.6559,-9.6574,-9.702,-9.7026,-9.7117,-9.7172,-9.7303,0,0,0,-9.5716,-9.5923,-9.5839,-9.6079,-9.5999,-9.6282,-9.6255,-9.6464,-9.6602,-9.6567,-9.7022,-9.7028,-9.7115,-9.7164,-9.7295,-9.741,-9.7457,0,0,-9.5968,-9.5953,-9.6096,-9.6029,-9.6323,-9.6238,-9.6546,-9.6683,-9.6708,-9.6919,-9.6931,-9.7128,-9.7171,-9.7301,-9.773,-9.7767,0,0,0,-9.617,-9.6272,-9.6353,-9.6487,-9.6602,-9.6704,-9.6797,-9.6849,-9.703,-9.6816,-9.7212,-9.7238,-9.7315,-9.737,-9.7402,-9.7468,-9.7053,-9.7053,-9.7052,-9.6499,-9.6527,-9.6764,-9.6828,-9.6957,-9.7054,-9.716,-9.7244,-9.7229,-9.7322,-9.7384,-9.7642,-9.7707,-9.7731,-9.78,-9.7449,-9.7449,-9.7449,-9.745,-9.6869,-9.7018,-9.7,-9.7224,-9.725,-9.7435,-9.7536,-9.752,-9.7694,-9.7596,-9.7665,-9.7555,-9.7771,-9.7832,-9.7458,-9.7456,-9.7455,-9.7455,-9.7454,-9.7087,-9.7163,-9.7227,-9.7426,-9.7574,-9.7629,-9.7799,-9.7815,-9.783,-9.7899,-9.7966,-9.7964,-9.7963,-9.793,-9.7931,-9.7932,-9.7933,-9.7934,-9.7934,-9.7286,-9.7356,-9.75,-9.7644,-9.7733,-9.7852,-9.7954,-9.804,-9.8138,-9.8136,-9.8136,-9.8111,-9.7789,-9.7707,-9.7948,-9.7946,-9.7944,-9.7943,-9.7942,-9.7648,-9.7571,-9.7794,-9.7885,-9.8054,-9.82,-9.8222,-9.8396,-9.8469,-9.8552,-9.8514,-9.8274,-9.8257,-9.8232,-9.8164,-9.8509,-9.8509,-9.8509,-9.8509,-9.783,-9.7826,-9.806,-9.8204,-9.8345,-9.8389,-9.8636,-9.8717,-9.8786,-9.8833,-9.8786,-9.8697,-9.8671,-9.867,-9.8635,-9.8571,-9.9013,-9.9013,-9.9014,-9.8054,-9.8065,-9.8275,-9.835,-9.8485,-9.8598,-9.8831,-9.8991,-9.9054,-9.9034,-9.8869,-9.8848,-9.8705,-9.8658,-9.8631,-9.8577,-9.8461,0,0]}]]